Deer Park, WA
on Thursday, January 10, 2013

Thursday
Previous Day Next Day
Daily Summary
 ActualAverageRecord
Temperature
Mean Temperature °F 26°F  
Max Temperature 33°F 33°F 50°F (2006)
Min Temperature 24°F 21°F 2°F (2011)
Degree Days
Heating Degree Days 36 38  
Month to date heating degree days 402 392  
Since 1 July heating degree days 3195 3619  
Cooling Degree Days 0 0  
Month to date cooling degree days 0 0  
Year to date cooling degree days 0 0  
Moisture
Dew Point 25°F   
Average Humidity 91    
Maximum Humidity 100    
Minimum Humidity 82    
Precipitation
Precipitation 0.12 in 0.10 in 2.01 in (2006)
Month to date precipitation 1.11 1.03  
Year to date precipitation 1.11 1.03  
Wind
Wind Speed 5 mph   
Max Wind Speed 12 mph   
Max Gust Speed 14 mph   
Visibility 6 miles   
Events Fog , Snow   

Key: T is trace of precipitation, MM is missing value
Source: NWS Daily Summary
Time(PST)TemperatureDew PointHumidity Pressure Visibility Wind DirectionWind SpeedGust SpeedPrecipitationEvents Conditions
12:46 AM 32.0°F 28.4°F 87% 29.74 in 10.0 miles SSE 9.2 mph - N/A   Overcast
12:53 AM 32.0°F 28.9°F 88% 29.79 in 10.0 miles SSE 11.5 mph - N/A   Overcast
1:53 AM 30.9°F 28.0°F 89% 29.80 in 10.0 miles South 8.1 mph - N/A   Partly Cloudy
2:53 AM 30.0°F 27.0°F 88% 29.81 in 10.0 miles South 5.8 mph - N/A   Overcast
3:53 AM 27.0°F 25.0°F 92% 29.81 in 10.0 miles South 4.6 mph - N/A   Clear
4:53 AM 26.1°F 24.1°F 92% 29.82 in 10.0 miles SSE 5.8 mph - N/A   Partly Cloudy
5:26 AM 26.6°F 24.8°F 93% 29.76 in 10.0 miles South 6.9 mph - N/A   Mostly Cloudy
5:53 AM 27.0°F 25.0°F 92% 29.83 in 10.0 miles South 8.1 mph - N/A   Mostly Cloudy
6:30 AM 26.6°F 24.8°F 93% 29.78 in 10.0 miles SSE 9.2 mph - N/A   Partly Cloudy
6:53 AM 26.1°F 24.1°F 92% 29.84 in 10.0 miles SSW 4.6 mph - N/A   Scattered Clouds
7:15 AM 26.6°F 24.8°F 93% 29.79 in 10.0 miles SSW 3.5 mph - N/A   Mostly Cloudy
7:53 AM 27.0°F 24.1°F 89% 29.86 in 10.0 miles Calm Calm - N/A   Overcast
8:21 AM 26.6°F 24.8°F 93% 29.80 in 10.0 miles North - - N/A   Overcast
8:53 AM 27.0°F 24.1°F 89% 29.87 in 10.0 miles SSW 4.6 mph - N/A   Overcast
9:53 AM 28.0°F 24.1°F 85% 29.87 in 10.0 miles South 3.5 mph - N/A   Overcast
10:53 AM 28.0°F 24.1°F 85% 29.86 in 10.0 miles SSW 3.5 mph - N/A   Overcast
11:53 AM 28.0°F 24.1°F 85% 29.85 in 10.0 miles SSW 3.5 mph - N/A   Overcast
12:53 PM 28.9°F 25.0°F 85% 29.85 in 10.0 miles South 3.5 mph - N/A   Overcast
1:53 PM 28.9°F 26.1°F 89% 29.84 in 10.0 miles SSE 3.5 mph - N/A   Overcast
2:53 PM 28.9°F 25.0°F 85% 29.86 in 8.0 miles SSE 3.5 mph - 0.00 in Snow Light Snow
3:53 PM 28.9°F 26.1°F 89% 29.86 in 10.0 miles SE 5.8 mph - 0.00 in   Overcast
4:50 PM 28.4°F 26.6°F 93% 29.80 in 2.5 miles East 3.5 mph - 0.00 in Snow Light Snow
4:53 PM 28.9°F 26.1°F 89% 29.87 in 2.0 miles Calm Calm - 0.00 in Snow Light Snow
5:04 PM 28.4°F 26.6°F 93% 29.80 in 1.5 miles Calm Calm - 0.00 in Snow Light Snow
5:14 PM 28.4°F 26.6°F 93% 29.80 in 0.8 miles Calm Calm - 0.01 in Snow Light Snow
5:22 PM 28.4°F 26.6°F 93% 29.81 in 0.5 miles Calm Calm - 0.02 in Fog , Snow Snow
5:40 PM 28.4°F 26.6°F 93% 29.81 in 0.8 miles West 3.5 mph - 0.04 in Snow Light Snow
5:53 PM 28.0°F 27.0°F 96% 29.88 in 0.8 miles West 5.8 mph - 0.05 in Snow Light Snow
6:06 PM 28.4°F 26.6°F 93% 29.81 in 1.0 miles West 6.9 mph - 0.01 in Snow Light Snow
6:53 PM 27.0°F 25.0°F 92% 29.88 in 1.5 miles WNW 6.9 mph - 0.01 in Snow Light Snow
7:53 PM 26.1°F 24.1°F 92% 29.89 in 1.0 miles NW 10.4 mph - 0.02 in Snow Light Snow
8:53 PM 26.1°F 24.1°F 92% 29.90 in 1.5 miles NW 10.4 mph - 0.01 in Snow Light Snow
9:05 PM 26.6°F 24.8°F 93% 29.83 in 2.5 miles NW 9.2 mph - 0.00 in Snow Light Snow
9:12 PM 26.6°F 24.8°F 93% 29.83 in 3.0 miles NW 9.2 mph - 0.00 in Snow Light Snow
9:18 PM 26.6°F 24.8°F 93% 29.83 in 2.5 miles NW 9.2 mph - 0.00 in Snow Light Snow
9:42 PM 26.6°F 23.0°F 86% 29.84 in 1.8 miles NW 6.9 mph - 0.01 in Snow Light Snow
9:53 PM 26.1°F 24.1°F 92% 29.91 in 1.2 miles NW 8.1 mph - 0.01 in Snow Light Snow
10:19 PM 26.6°F 24.8°F 93% 29.84 in 1.0 miles NW 8.1 mph - 0.01 in Snow Light Snow
10:42 PM 24.8°F 24.8°F 100% 29.85 in 2.0 miles NW 6.9 mph - 0.02 in Snow Light Snow
10:53 PM 25.0°F 24.1°F 96% 29.92 in 2.5 miles NW 6.9 mph - 0.02 in Snow Light Snow
10:59 PM 24.8°F 24.8°F 100% 29.85 in 3.0 miles NW 6.9 mph - 0.00 in Snow Light Snow
11:53 PM 25.0°F 23.0°F 92% 29.94 in 10.0 miles NW 5.8 mph - 0.00 in   Overcast
Moon Phase
Jan. 10 Jan. 11 Jan. 18 Jan. 26 Feb. 03
Sunrise:07:37 AM (PST) Moon Rise:06:20 AM (PST)1/10
Sunset:04:18 PM (PST) Moon Set:03:32 PM (PST)1/10

Copyright © 2014 The Weather Underground, Inc.